Location: Albany
(42.6526°N, 73.7562°W)
Time: 03:39:11
(UTC+00:00)

Cosmos 2227 Rocket - Pass Details

Date: 19 November 2019
Orbit: 838 x 846 km, 71.0° (Epoch: 12 December)

Event Time Altitude Azimuth Distance (km) Brightness Sun altitude
Rises 22:44:26 0° 327° (NNW) 3,412 5.6 -13.8°
Reaches altitude 10° 22:47:03 10° 320° (NW) 2,472 5.0 -14.3°
Maximum altitude 22:52:11 36° 255° (WSW) 1,303 3.9 -15.2°
Drops below altitude 10° 22:57:16 10° 190° (S) 2,452 4.9 -16.1°
Sets 22:59:52 0° 182° (S) 3,381 5.5 -16.6°
